TimeMST,TemperatureF,Dew PointF,Humidity,Sea Level PressureIn,VisibilityMPH,Wind Direction,Wind SpeedMPH,Gust SpeedMPH,PrecipitationIn,Events,Conditions,WindDirDegrees,DateUTC
12:53 AM,27.0,25.0,92,30.27,6.0,SSW,4.6,-,0.00,,Mostly Cloudy,200,2013-01-30 07:53:00
1:18 AM,27.0,25.0,92,30.20,6.0,SSE,5.8,-,N/A,,Mostly Cloudy,160,2013-01-30 08:18:00
1:53 AM,27.0,24.1,89,30.27,6.0,SE,5.8,-,N/A,,Mostly Cloudy,140,2013-01-30 08:53:00
2:53 AM,25.0,23.0,92,30.28,8.0,SSE,8.1,-,N/A,,Scattered Clouds,150,2013-01-30 09:53:00
3:53 AM,26.1,23.0,88,30.26,8.0,SE,11.5,-,N/A,,Mostly Cloudy,130,2013-01-30 10:53:00
4:53 AM,26.1,23.0,88,30.25,4.0,SSE,11.5,-,0.00,Snow,Light Snow,150,2013-01-30 11:53:00
5:04 AM,26.1,23.0,88,30.18,2.5,SSE,10.4,-,0.01,Snow,Light Snow,150,2013-01-30 12:04:00
5:30 AM,27.0,25.0,92,30.19,1.8,SSE,9.2,-,0.01,Snow,Light Snow,150,2013-01-30 12:30:00
5:53 AM,28.0,25.0,88,30.25,1.0,SSE,9.2,-,0.02,Snow,Light Snow,150,2013-01-30 12:53:00
6:20 AM,28.0,26.1,92,30.18,1.0,SE,9.2,-,0.01,Snow,Light Snow,130,2013-01-30 13:20:00
6:53 AM,28.0,26.1,92,30.26,1.2,SE,10.4,-,0.03,Snow,Light Snow,130,2013-01-30 13:53:00
7:36 AM,28.0,26.1,92,30.19,1.2,SSE,9.2,-,0.02,Snow,Light Snow,150,2013-01-30 14:36:00
7:53 AM,28.0,27.0,96,30.27,1.0,ESE,9.2,-,0.03,Snow,Light Snow,120,2013-01-30 14:53:00
8:53 AM,28.9,27.0,92,30.26,1.2,SE,8.1,-,0.03,Snow,Light Snow,140,2013-01-30 15:53:00
9:53 AM,30.0,26.1,85,30.27,1.2,SSE,13.8,-,0.01,Snow,Light Snow,160,2013-01-30 16:53:00
10:21 AM,30.0,27.0,88,30.21,3.0,SE,11.5,-,0.00,Snow,Light Snow,140,2013-01-30 17:21:00
10:53 AM,30.0,27.0,88,30.27,10.0,SE,13.8,-,0.01,,Overcast,140,2013-01-30 17:53:00
11:00 AM,30.9,27.0,85,30.22,10.0,SSE,11.5,-,N/A,,Overcast,150,2013-01-30 18:00:00
11:07 AM,30.9,27.0,85,30.22,2.0,SE,12.7,-,0.00,Snow,Light Snow,140,2013-01-30 18:07:00
11:13 AM,30.9,27.0,85,30.22,1.5,SE,15.0,-,0.00,Snow,Light Snow,140,2013-01-30 18:13:00
11:26 AM,30.9,28.0,89,30.22,2.0,SSE,10.4,-,0.00,Snow,Light Snow,160,2013-01-30 18:26:00
11:35 AM,30.9,28.0,89,30.22,2.0,SSE,13.8,-,0.00,,Overcast,150,2013-01-30 18:35:00
11:42 AM,30.9,28.0,89,30.22,7.0,SE,10.4,-,0.00,,Overcast,130,2013-01-30 18:42:00
11:53 AM,30.9,28.0,89,30.28,9.0,SE,13.8,-,0.00,Snow,Light Snow,140,2013-01-30 18:53:00
12:53 PM,33.1,27.0,78,30.27,10.0,South,11.5,-,0.00,Snow,Light Snow,170,2013-01-30 19:53:00
1:53 PM,34.0,28.0,79,30.24,10.0,SSE,10.4,-,0.00,Snow,Light Snow,150,2013-01-30 20:53:00
2:53 PM,35.1,28.0,76,30.25,10.0,SSE,9.2,-,0.00,Snow,Light Snow,150,2013-01-30 21:53:00
3:53 PM,35.1,28.0,76,30.24,10.0,SE,9.2,-,0.00,,Overcast,140,2013-01-30 22:53:00
4:53 PM,35.1,28.0,76,30.25,10.0,ESE,9.2,-,N/A,,Mostly Cloudy,120,2013-01-30 23:53:00
5:53 PM,35.1,28.9,78,30.24,10.0,SSE,9.2,-,N/A,,Mostly Cloudy,150,2013-01-31 00:53:00
6:53 PM,35.1,28.9,78,30.25,10.0,SE,8.1,-,N/A,,Mostly Cloudy,140,2013-01-31 01:53:00
7:53 PM,34.0,28.9,82,30.26,10.0,ESE,6.9,-,N/A,,Mostly Cloudy,120,2013-01-31 02:53:00
8:53 PM,34.0,28.9,82,30.25,10.0,SE,6.9,-,N/A,,Mostly Cloudy,140,2013-01-31 03:53:00
9:53 PM,34.0,28.9,82,30.26,10.0,SE,6.9,-,N/A,,Mostly Cloudy,130,2013-01-31 04:53:00
10:53 PM,34.0,28.9,82,30.27,10.0,ESE,4.6,-,N/A,,Mostly Cloudy,120,2013-01-31 05:53:00
11:53 PM,35.1,28.9,78,30.29,10.0,ESE,5.8,-,N/A,,Mostly Cloudy,120,2013-01-31 06:53:00